Weather History for Plainview, TX

Change the Weather History Date:

Friday, April 5, 2013

  Actual Average Record
Temperature  
Mean Temperature 57 °F -  
Max Temperature 80 °F 66 °F 91 °F (2006)
Min Temperature 34 °F 39 °F 24 °F (1957)
Degree Days  
Heating Degree Days 8    
Growing Degree Days 7 (Base 50)    
Moisture  
Dew Point 31 °F    
Average Humidity 49    
Maximum Humidity 92    
Minimum Humidity 14    
Precipitation  
Precipitation 0.01 in - - ()
Sea Level Pressure  
Sea Level Pressure 30.04 in    
Wind  
Wind Speed 10 mph (South)    
Max Wind Speed 23 mph    
Max Gust Speed 32 mph    
Visibility 10 miles    
Events      
Averages and records for this station are not official NWS values.
T = Trace of Precipitation, MM = Missing Value Source: NWS Daily Summary

Daily Weather History Graph

Daily Weather History Graph

Search for Another Location

Airport:

Trip Planner

Search our weather history database for the weather conditions in past years. The results will help you decide how hot, cold, wet, or windy it might be!

Date:

Astronomy

Apr. 05, 2013 Rise Set
Actual Time 7:28 AM CDT 8:11 PM CDT
Civil Twilight 7:03 AM CDT 8:36 PM CDT
Nautical Twilight 6:33 AM CDT 9:06 PM CDT
Astronomical Twilight 6:02 AM CDT 9:37 PM CDT
Moon 4:24 AM CDT (4/5) 3:48 PM CDT (4/5)
Length of Visible Light 13h 33m
Length of Day
12h 42m
Waning Crescent, 23% of the Moon is Illuminated
Apr 5
Waning Crescent
Apr 10
New
Apr 18
First Quarter
Apr 25
Full
May 2
Last Quarter

Hourly Weather History & Observations

Time (CDT) Temp. Windchill Dew Point Humidity Pressure Visibility Wind Dir Wind Speed Gust Speed Precip Events Conditions
12:15 AM 42.3 °F 37.9 °F 34.0 °F 72% 30.16 in 10.0 mi South 6.9 mph - N/A   Clear
12:35 AM 42.3 °F 38.6 °F 34.7 °F 75% 30.17 in 10.0 mi South 5.8 mph - N/A   Clear
12:55 AM 42.3 °F 38.6 °F 35.4 °F 77% 30.17 in 10.0 mi South 5.8 mph - N/A   Clear
1:15 AM 40.3 °F 37.1 °F 34.2 °F 79% 30.16 in 10.0 mi South 4.6 mph - N/A   Clear
1:35 AM 39.7 °F 35.6 °F 33.8 °F 79% 30.15 in 10.0 mi South 5.8 mph - N/A   Clear
1:55 AM 39.7 °F 36.5 °F 34.3 °F 81% 30.15 in 10.0 mi South 4.6 mph - N/A   Clear
2:15 AM 37.8 °F 34.2 °F 32.9 °F 83% 30.15 in 10.0 mi SSE 4.6 mph - N/A   Clear
2:35 AM 37.4 °F 32.8 °F 32.5 °F 83% 30.16 in 10.0 mi South 5.8 mph - N/A   Clear
2:55 AM 37.4 °F 32.8 °F 32.9 °F 84% 30.16 in 10.0 mi South 5.8 mph - N/A   Clear
3:15 AM 37.4 °F 34.9 °F 32.7 °F 83% 30.15 in 10.0 mi South 3.5 mph - N/A   Clear
3:35 AM 37.4 °F 34.9 °F 33.1 °F 84% 30.15 in 10.0 mi SSE 3.5 mph - N/A   Clear
3:55 AM 34.7 °F 31.8 °F 31.1 °F 87% 30.15 in 10.0 mi SSE 3.5 mph - N/A   Clear
4:15 AM 34.7 °F 31.8 °F 31.3 °F 87% 30.14 in 10.0 mi South 3.5 mph - N/A   Clear
4:35 AM 36.5 °F 33.9 °F 33.1 °F 87% 30.15 in 10.0 mi SSW 3.5 mph - N/A   Clear
4:55 AM 36.0 °F 33.3 °F 32.9 °F 89% 30.15 in 10.0 mi SSW 3.5 mph - N/A   Clear
5:15 AM 34.7 °F 31.8 °F 31.8 °F 89% 30.15 in 10.0 mi SW 3.5 mph - N/A   Clear
5:35 AM 36.5 °F - 33.8 °F 90% 30.13 in 10.0 mi Calm Calm - N/A   Clear
5:55 AM 34.9 °F 30.8 °F 32.0 °F 89% 30.15 in 10.0 mi SW 4.6 mph - N/A   Clear
6:15 AM 34.7 °F 31.8 °F 32.0 °F 90% 30.15 in 10.0 mi SW 3.5 mph - N/A   Clear
6:35 AM 34.7 °F 31.8 °F 32.0 °F 90% 30.14 in 10.0 mi SSW 3.5 mph - N/A   Clear
6:55 AM 34.7 °F 31.8 °F 32.2 °F 91% 30.15 in 10.0 mi SW 3.5 mph - N/A   Clear
7:15 AM 34.7 °F 31.8 °F 32.5 °F 92% 30.15 in 10.0 mi SW 3.5 mph - N/A   Clear
7:35 AM 35.1 °F - 32.4 °F 90% 30.15 in 10.0 mi Calm Calm - N/A   Clear
7:55 AM 34.7 °F 30.6 °F 32.4 °F 91% 30.15 in 7.0 mi SSW 4.6 mph - N/A   Clear
8:15 AM 37.6 °F 34.0 °F 34.9 °F 90% 30.15 in 10.0 mi SSW 4.6 mph - N/A   Clear
8:35 AM 39.9 °F 35.8 °F 36.7 °F 88% 30.15 in 10.0 mi South 5.8 mph - N/A   Clear
8:55 AM 43.5 °F 38.3 °F 38.5 °F 82% 30.14 in 10.0 mi South 9.2 mph - N/A   Clear
9:15 AM 47.3 °F - 40.1 °F 76% 30.15 in 10.0 mi SSW 11.5 mph - N/A   Clear
9:35 AM 50.0 °F - 41.0 °F 71% 30.15 in 10.0 mi South 8.1 mph - N/A   Clear
9:55 AM 51.4 °F - 40.6 °F 67% 30.15 in 10.0 mi South 11.5 mph - N/A   Clear
10:15 AM 54.9 °F - 41.2 °F 60% 30.15 in 10.0 mi South 11.5 mph - N/A   Clear
10:35 AM 57.4 °F - 40.6 °F 54% 30.13 in 10.0 mi South 11.5 mph - N/A   Clear
10:55 AM 59.9 °F - 39.4 °F 47% 30.13 in 10.0 mi South 13.8 mph - N/A   Clear
11:15 AM 62.4 °F - 37.8 °F 40% 30.12 in 10.0 mi South 17.3 mph - N/A   Clear
11:35 AM 64.9 °F - 36.5 °F 35% 30.12 in 10.0 mi SSW 18.4 mph - N/A   Clear
11:55 AM 67.5 °F - 36.3 °F 32% 30.11 in 10.0 mi SSW 18.4 mph 23.0 mph N/A   Clear
12:15 PM 70.0 °F - 36.9 °F 30% 30.10 in 10.0 mi South 19.6 mph 26.5 mph N/A   Clear
12:35 PM 70.0 °F - 34.3 °F 27% 30.09 in 10.0 mi SSW 18.4 mph 25.3 mph N/A   Clear
12:55 PM 70.3 °F - 31.6 °F 24% 30.08 in 10.0 mi SSW 20.7 mph 26.5 mph N/A   Clear
1:15 PM 73.9 °F - 32.9 °F 22% 30.06 in 10.0 mi SSW 21.9 mph 29.9 mph N/A   Clear
1:35 PM 71.8 °F - 32.0 °F 23% 30.06 in 10.0 mi South 19.6 mph 27.6 mph N/A   Clear
1:55 PM 75.2 °F - 32.4 °F 21% 30.05 in 10.0 mi SSW 23.0 mph 28.8 mph N/A   Clear
2:15 PM 75.2 °F - 31.5 °F 20% 30.03 in 10.0 mi South 17.3 mph 32.2 mph 0.01 in   Clear
2:35 PM 75.2 °F - 30.0 °F 19% 30.02 in 10.0 mi South 20.7 mph 26.5 mph 0.01 in   Clear
2:55 PM 75.7 °F - 30.6 °F 19% 30.01 in 10.0 mi South 19.6 mph - 0.01 in   Clear
3:15 PM 77.0 °F - 29.7 °F 18% 29.99 in 10.0 mi SSW 20.7 mph 24.2 mph N/A   Clear
3:35 PM 77.5 °F - 28.0 °F 16% 29.97 in 10.0 mi South 17.3 mph 28.8 mph N/A   Clear
3:55 PM 77.5 °F - 26.1 °F 15% 29.96 in 10.0 mi SSW 20.7 mph 31.1 mph N/A   Clear
4:15 PM 78.1 °F - 26.4 °F 15% 29.95 in 10.0 mi South 21.9 mph 27.6 mph N/A   Clear
4:35 PM 79.3 °F - 27.3 °F 15% 29.94 in 10.0 mi South 20.7 mph 26.5 mph N/A   Clear
4:55 PM 77.9 °F - 25.3 °F 14% 29.93 in 10.0 mi South 21.9 mph 27.6 mph N/A   Clear
5:15 PM 80.1 °F - 25.9 °F 14% 29.91 in 10.0 mi South 23.0 mph 31.1 mph N/A   Clear
5:35 PM 80.1 °F - 27.1 °F 14% 29.91 in 10.0 mi SSW 20.7 mph 32.2 mph N/A   Clear
5:55 PM 77.7 °F - 25.2 °F 14% 29.90 in 10.0 mi South 23.0 mph 31.1 mph N/A   Clear
6:15 PM 77.9 °F - 25.7 °F 15% 29.90 in 10.0 mi SSW 20.7 mph 25.3 mph N/A   Clear
6:35 PM 77.5 °F - 25.2 °F 14% 29.89 in 10.0 mi South 21.9 mph 29.9 mph N/A   Clear
6:55 PM 77.4 °F - 25.0 °F 14% 29.89 in 10.0 mi South 20.7 mph 28.8 mph N/A   Clear
7:15 PM 75.2 °F - 24.4 °F 15% 29.89 in 10.0 mi South 18.4 mph - N/A   Clear
7:35 PM 75.2 °F - 25.7 °F 16% 29.89 in 10.0 mi South 17.3 mph 25.3 mph N/A   Clear
7:55 PM 72.5 °F - 25.0 °F 17% 29.89 in 10.0 mi South 16.1 mph - N/A   Clear
8:15 PM 70.0 °F - 25.2 °F 19% 29.88 in 10.0 mi South 16.1 mph - N/A   Clear
8:35 PM 70.0 °F - 27.5 °F 20% 29.89 in 10.0 mi South 13.8 mph - N/A   Clear
8:55 PM 70.0 °F - 27.7 °F 21% 29.88 in 10.0 mi South 12.7 mph - N/A   Clear
9:15 PM 67.5 °F - 28.0 °F 23% 29.88 in 10.0 mi South 15.0 mph - N/A   Clear
9:35 PM 63.1 °F - 27.1 °F 26% 29.88 in 10.0 mi South 15.0 mph - N/A   Clear
9:55 PM 62.8 °F - 27.3 °F 26% 29.88 in 10.0 mi South 13.8 mph - N/A   Clear
10:15 PM 61.3 °F - 26.6 °F 27% 29.88 in 10.0 mi South 15.0 mph - N/A   Clear
10:35 PM 59.9 °F - 25.7 °F 27% 29.88 in 10.0 mi South 12.7 mph - N/A   Clear
10:55 PM 59.9 °F - 25.7 °F 27% 29.87 in 10.0 mi South 13.8 mph - N/A   Clear
11:15 PM 59.9 °F - 26.4 °F 28% 29.87 in 10.0 mi South 12.7 mph - N/A   Clear
11:35 PM 61.2 °F - 26.1 °F 26% 29.86 in 10.0 mi South 18.4 mph 23.0 mph N/A   Clear
11:55 PM 60.1 °F - 26.6 °F 28% 29.86 in 10.0 mi South 13.8 mph - N/A   Clear